#timestamp,LO_Frequency,Hit 
1505304015.3,286047002.0,N
1505304035.1,286047001.4,N
1505304055.8,286046998.4,N
1505304075.7,286046997.9,N
1505304095.5,286046999.2,N
1505304115.3,286047001.4,N
1505304135.2,286047001.3,N
1505304155.9,286047005.6,N
1505304175.7,286047003.5,N
1505304195.6,286047007.4,N
1505304215.4,286047008.7,P
1505304235.2,286047003.6,N
1505304255.1,286047006.3,N
1505304256.0,286047006.3,N
1505304275.8,286047008.8,P
1505304295.7,286047000.6,N
1505304315.5,286046996.1,N
1505304335.3,286046992.2,N
1505304355.1,286046988.8,N
1505304375.9,286046987.8,N
1505304395.7,286046987.9,N
1505304415.5,286046987.2,N
1505304435.4,286046987.2,N
1505304455.2,286046985.9,N
1505304475.0,286046984.8,N
1505304475.9,286046984.8,N
1505304495.8,286046983.4,N
1505304515.6,286046988.3,N
1505304535.4,286046990.3,N
1505304555.3,286046992.9,N
1505304575.1,286046993.8,N
1505304576.0,286046993.8,N
1505304595.8,286046990.6,N
1505304615.7,286046990.2,N
1505304635.5,286046994.7,N
1505304655.3,286046991.7,N
1505304675.2,286046990.4,N
1505304695.9,286046990.6,N
1505304715.7,286046994.7,N
1505304735.5,286046992.8,N
1505304755.4,286046993.2,N
1505304775.2,286046991.6,N
1505304795.0,286046988.8,N
1505304795.9,286046988.8,N
1505304815.8,286046991.3,N
1505304835.6,286046990.0,N
1505304855.4,286046984.1,P
1505304875.3,286046991.2,N
1505304895.1,286046993.0,N
1505304915.8,286046994.7,N
1505304935.7,286046997.1,N
1505304955.5,286046996.0,N
1505304975.3,286046996.7,N
1505304995.2,286046997.5,N
1505305015.9,286047000.7,N
1505305035.7,286047000.9,N
1505305055.6,286046996.2,N
1505305075.4,286046995.8,N
1505305095.2,286046999.3,N
1505305115.0,286046995.0,N
1505305116.0,286046995.0,N
1505305135.9,286046997.2,N
1505305155.7,286046997.2,N
1505305175.6,286046996.0,N
1505305195.4,286046994.4,N
1505305215.2,286046993.4,N
1505305235.1,286046999.1,N
1505305236.0,286046999.1,N
1505305255.8,286046996.2,N
1505305275.6,286046993.6,N
1505305295.4,286046992.9,N
1505305315.3,286046994.7,N
1505305335.1,286046992.8,N
1505305355.8,286046993.1,N
1505305375.7,286046991.3,N
1505305395.5,286046993.3,N
1505305415.3,286046993.8,N
1505305435.2,286046991.7,P
1505305455.0,286046999.3,N
1505305455.9,286046999.3,N
1505305475.7,286047004.4,N
1505305495.6,286047002.2,N
1505305515.4,286047006.9,N
1505305535.2,286047005.5,N
1505305555.1,286047003.8,N
1505305556.0,286047003.8,N
1505305575.8,286047005.7,N
1505305595.6,286047007.3,N
1505305615.5,286047005.1,N
1505305635.3,286047003.8,N
1505305655.1,286047003.3,N
1505305675.9,286047000.8,N
1505305695.7,286046999.9,N
1505305715.5,286047002.3,N
1505305735.4,286046997.1,N
1505305755.2,286046993.3,N
1505305775.0,286046990.9,N
1505305775.9,286046990.9,N
1505305795.7,286046991.6,N
1505305815.6,286046993.2,N
1505305835.4,286046995.1,N
1505305855.2,286046996.0,N
1505305875.1,286046997.6,N
1505305876.0,286046997.6,N
1505305895.8,286046995.5,N
1505305915.6,286047000.0,N
1505305935.5,286047000.7,N
1505305955.3,286046999.8,N
1505305975.1,286046998.2,N
1505305995.9,286047000.4,N
1505306015.7,286047000.8,N
1505306035.5,286047000.8,N
1505306055.4,286047000.6,N
1505306075.2,286047001.8,N
1505306095.0,286046998.5,N
1505306095.9,286046998.5,N
1505306115.8,286047001.2,N
1505306135.6,286046998.4,N
1505306155.4,286047000.7,N
1505306175.3,286046999.5,N
1505306195.1,286046994.1,N
1505306196.0,286046994.1,N
1505306215.8,286046990.6,N
1505306235.7,286046990.2,N
1505306255.5,286046991.5,N
1505306275.3,286046990.3,N
1505306295.1,286046993.0,N
1505306315.9,286046991.4,N
1505306335.7,286046993.4,N
1505306355.5,286046993.7,N
1505306375.4,286046997.7,N
1505306395.2,286046997.5,N
1505306415.0,286046996.4,N
1505306415.9,286046996.4,N
1505306435.8,286046992.2,N
1505306455.6,286046995.0,N
1505306475.4,286046996.4,N
1505306495.3,286046991.8,N
1505306515.1,286046995.5,N
1505306516.0,286046995.5,N
1505306535.8,286046993.3,N
1505306555.7,286046992.6,N
1505306575.5,286046990.5,N
1505306595.3,286046991.6,N
1505306615.2,286046987.3,P
1505306635.9,286046996.0,N
1505306655.7,286046993.3,N
1505306675.6,286046992.2,N
1505306695.4,286046992.2,N
1505306715.2,286046984.6,P
1505306735.1,286046990.6,N
1505306736.0,286046990.6,N
1505306755.8,286046994.8,N
1505306775.6,286046994.9,N
1505306795.5,286046999.7,N
1505306815.3,286047002.0,N
1505306835.1,286047001.1,N
1505306855.9,286047002.3,N
1505306875.7,286047002.9,N
1505306895.5,286047003.9,N
1505306915.4,286046999.5,N
1505306935.2,286046999.0,N
1505306955.0,286046999.0,N
1505306955.9,286046999.0,N
1505306975.8,286046997.6,N
1505306995.6,286046999.0,N
1505307015.4,286046998.6,N
1505307035.2,286046999.7,N
1505307055.1,286047000.9,N
1505307056.0,286047000.9,N
1505307075.8,286046998.6,N
1505307095.6,286046998.1,N
1505307115.5,286047001.6,N
1505307135.3,286047006.0,N
1505307155.1,286047001.5,N
1505307175.9,286047001.8,N
1505307195.7,286046999.9,N
1505307215.5,286046999.6,N
1505307235.4,286047001.2,N
1505307255.2,286046999.7,N
1505307275.0,286047001.3,N
1505307275.9,286047001.3,N
1505307295.8,286046998.4,N
1505307315.6,286046994.9,N
1505307335.4,286046993.8,P
1505307355.3,286046991.2,N
1505307375.1,286046989.2,N
1505307376.0,286046989.2,N
1505307395.8,286046985.7,P
1505307415.7,286046998.9,N
1505307435.5,286047004.3,N
1505307455.3,286047006.0,N
1505307475.2,286047005.9,N
1505307495.9,286047000.0,N
1505307515.7,286047000.8,N
1505307535.6,286047002.2,N
1505307555.4,286047002.6,N
1505307575.2,286047001.4,N
1505307595.1,286047003.7,N
1505307596.0,286047003.7,N
